[[{"header":{"parameterUnit":"m.s-1","parameterCategory":1,"la1":30.2991,"la2":30.254,"lo1":-89.0895,"lo2":-89.0444,"dy":0.0017,"dx":0.0017,"nx":28,"ny":28,"refTime":"2023-07-18T03:00:00:Z","depth":0,"parameterNumber":2,"parameterNumberName":"U-component_of_WINDS"},"data":[0,0,0,0,0,0,0,0,0,0,0,0,0,0,0,0,0,0,0,0,0,0,0,0,0,0,0,0,0,0,0,0,0,0,0,0,0,0,0,0,0,0,0,0,0,0,0,0,0,0,0,0,0,0,0,0,0,0,1.6021,1.6023,0,1.6135,1.6136,1.6137,1.6134,1.6133,1.6131,1.613,1.6246,1.625,1.6255,0,0,0,0,0,0,0,0,0,0,0,0,0,1.5802,1.5806,1.6021,1.6023,1.6024,1.6135,1.6136,1.6138,1.6135,1.6133,1.6131,1.6129,1.6244,1.625,1.6255,0,0,0,0,0,0,0,0,0,0,0,0,0,1.5905,1.5807,1.6021,1.6036,1.6038,1.6134,1.6136,1.6138,1.6135,1.6133,1.613,1.6128,1.6243,1.6249,1.6256,1.6345,0,0,1.6277,1.628,0,0,0,0,0,0,0,0,1.5899,1.5913,1.6032,1.6035,1.6038,1.6118,1.6101,1.6207,1.6136,1.6098,1.613,1.6127,1.6205,1.6215,1.6241,1.635,1.6355,1.6277,1.6282,1.6284,1.6286,0,0,0,0,0,0,0,1.5892,1.5908,1.6066,1.6034,1.6038,1.6037,1.6049,1.6122,1.6163,1.6101,1.6101,1.6115,1.6206,1.6235,1.6244,1.6357,1.6277,1.6283,1.6287,1.629,1.6543,1.6546,0,0,0,0,0,0,1.5881,1.5902,1.6063,1.607,1.5961,1.6043,1.6056,1.6095,1.6163,1.6171,1.6117,1.6114,1.6224,1.6236,1.6248,1.6355,1.6284,1.6291,1.6295,1.6541,1.6544,1.6547,0,0,0,0,0,0,1.5877,1.5896,1.6058,1.5986,1.6006,1.6049,1.6092,1.6098,1.6127,1.6174,1.6182,1.6138,1.6223,1.6239,1.632,1.6359,1.6294,1.63,1.6537,1.6542,1.6545,1.6571,0,0,0,0,0,0,1.587,1.5894,1.5928,1.5987,1.601,1.6128,1.6095,1.6102,1.6138,1.6136,1.6196,1.6204,1.6222,1.631,1.6327,1.6367,1.6305,1.6534,1.6539,1.6544,1.6566,1.6575,1.6582,0,0,0,0,0,1.5863,1.5931,1.593,1.5949,1.6054,1.6131,1.6144,1.6164,1.6142,1.6176,1.6207,1.6202,1.6353,1.6319,1.6338,1.6381,1.6532,1.6538,1.6544,1.6563,1.6573,1.6582,0,0,0,0,0,0,1.5875,1.5939,1.5938,1.6027,1.6074,1.613,1.6174,1.6174,1.6228,1.6223,1.6246,1.626,1.6341,1.637,1.633,1.647,1.6439,1.6449,1.6448,1.6458,1.6466,1.6456,1.6311,0,0,0,0,0,1.5889,1.5946,1.5998,1.6072,1.6095,1.6131,1.6165,1.6176,1.6225,1.6244,1.6281,1.6329,1.6387,1.6424,1.648,1.6572,1.6584,1.661,1.6618,1.6625,1.6632,1.6682,1.6694,1.6566,1.6566,1.6566,0,0,1.5916,1.5958,1.5993,1.6076,1.6113,1.6171,1.6147,1.621,1.6254,1.6254,1.6333,1.6362,1.6417,1.6503,1.6543,1.6529,1.6671,1.6632,1.6637,1.6641,1.6689,1.6701,1.6712,1.657,1.6569,1.6569,0,0,1.5996,1.6034,1.6099,1.6137,1.6194,1.6217,1.6233,1.629,1.6309,1.6389,1.639,1.6443,1.6542,1.6581,1.6613,1.6709,1.6706,1.6727,1.6767,1.6815,1.6825,1.6834,1.6867,1.6878,1.6735,1.6735,1.6735,0,1.6023,1.6111,1.6132,1.6196,1.6232,1.6236,1.6301,1.6337,1.641,1.6434,1.6418,1.6543,1.658,1.6675,1.6699,1.6726,1.6744,1.6719,1.6822,1.6831,1.684,1.6871,1.6884,1.6737,1.6737,1.6737,1.6737,0,1.6141,1.6202,1.6248,1.6317,1.6359,1.6423,1.6454,1.6494,1.6502,1.6527,1.6609,1.6654,1.6718,1.6743,1.6751,1.6839,1.6828,1.6817,1.6787,1.6854,1.6883,1.6896,1.674,1.6739,1.6739,1.6738,0,0,1.6229,1.6311,1.6327,1.6358,1.6422,1.647,1.6535,1.6598,1.6631,1.6682,1.6735,1.682,1.681,1.6847,1.6861,1.6903,1.6975,1.6887,1.6888,1.69,1.7073,1.7079,1.7093,1.6974,1.6977,1.6979,1.7067,0,1.6314,1.6429,1.645,1.655,1.6606,1.6612,1.6668,1.6713,1.6739,1.679,1.6819,1.6878,1.6861,1.6883,1.6926,1.6957,1.7009,1.6951,1.7024,1.7026,1.7007,1.7108,1.7115,1.7197,1.7079,1.7081,1.7083,0,1.6428,1.6481,1.6586,1.6642,1.6666,1.6717,1.6776,1.6826,1.6878,1.6893,1.6935,1.6944,1.7012,1.698,1.7073,1.7033,1.7064,1.7084,1.7088,1.7093,1.7057,1.7115,1.7223,1.7235,1.7102,1.71,1.7099,0,1.6479,1.6578,1.6653,1.668,1.6748,1.6782,1.6812,1.6862,1.6899,1.6951,1.6975,1.7036,1.7068,1.7115,1.714,1.7115,1.723,1.7201,1.7244,1.7243,1.7266,1.7263,1.7379,1.729,1.729,1.729,1.7289,0,1.657,1.6634,1.6677,1.6723,1.6794,1.6819,1.6889,1.6919,1.6963,1.7014,1.7024,1.7072,1.7103,1.7156,1.7177,1.7249,1.7265,1.7278,1.7283,1.7276,1.7274,1.7295,1.7289,1.7293,1.7292,1.7292,1.7291,0,1.6639,1.667,1.6752,1.681,1.6826,1.6876,1.6926,1.697,1.6997,1.7062,1.7079,1.712,1.7183,1.7214,1.7292,1.7305,1.7387,1.7389,1.7369,1.7371,1.7411,1.7406,1.7542,1.756,1.7462,1.7463,1.7463,0,1.6693,1.6742,1.6806,1.6841,1.6872,1.6929,1.6967,1.6994,1.7033,1.7095,1.7133,1.7196,1.7248,1.7348,1.7385,1.7445,1.7446,1.749,1.7455,1.7447,1.7445,1.744,1.7445,1.7495,1.7496,1.7497,1.7498,0,1.6786,1.68,1.6854,1.6914,1.6959,1.7007,1.7055,1.7083,1.7118,1.7162,1.7226,1.7266,1.7346,1.7408,1.7471,1.7502,1.7505,1.7509,1.7522,1.7514,1.75,1.7506,1.7384,1.7505,1.7504,1.7504,1.7503,1.7503,1.6848,1.6891,1.6943,1.7003,1.7042,1.7086,1.7131,1.7164,1.7218,1.7285,1.7298,1.7366,1.7417,1.7501,1.7534,1.7588,1.7578,1.7597,1.7601,1.7605,1.7606,1.7494,1.76,1.76,1.7599,1.7599,1.7599,0,1.6939,1.6973,1.7028,1.7095,1.7142,1.7143,1.7196,1.7235,1.7295,1.7342,1.7393,1.7467,1.7528,1.7571,1.7632,1.7667,1.767,1.7682,1.7679,1.7685,1.7612,1.7594,1.7679,1.7679,1.7678,1.7678,1.7678,1.7678,1.6992,1.7065,1.7085,1.7178,1.7212,1.7278,1.7308,1.7349,1.7387,1.7469,1.752,1.7548,1.7593,1.7658,1.7714,1.7725,1.7747,1.7758,1.7769,1.7699,1.7691,1.7683,1.7665,1.7764,1.7764,1.7837,1.7838,1.7838]},{"header":{"parameterUnit":"m.s-1","parameterCategory":1,"la1":30.2991,"la2":30.254,"lo1":-89.0895,"lo2":-89.0444,"dy":0.0017,"dx":0.0017,"nx":28,"ny":28,"refTime":"2023-07-18T03:00:00:Z","depth":0,"parameterNumber":3,"parameterNumberName":"V-component_of_WINDS"},"data":[0,0,0,0,0,0,0,0,0,0,0,0,0,0,0,0,0,0,0,0,0,0,0,0,0,0,0,0,0,0,0,0,0,0,0,0,0,0,0,0,0,0,0,0,0,0,0,0,0,0,0,0,0,0,0,0,0,0,1.9574,1.9574,0,1.9529,1.9529,1.9528,1.9466,1.9465,1.9463,1.9462,1.9417,1.9416,1.9416,0,0,0,0,0,0,0,0,0,0,0,0,0,1.9605,1.9605,1.9574,1.9574,1.9573,1.953,1.9529,1.9528,1.9466,1.9465,1.9463,1.9462,1.9417,1.9416,1.9416,0,0,0,0,0,0,0,0,0,0,0,0,0,1.9579,1.9605,1.9574,1.9537,1.9533,1.953,1.9529,1.9528,1.9466,1.9464,1.9463,1.9461,1.9417,1.9416,1.9416,1.9446,0,0,1.9415,1.9415,0,0,0,0,0,0,0,0,1.9581,1.9578,1.9543,1.9539,1.9535,1.9501,1.9523,1.9501,1.9466,1.9492,1.9462,1.9461,1.9446,1.9443,1.9438,1.9444,1.9442,1.9415,1.9415,1.9415,1.9415,0,0,0,0,0,0,0,1.9583,1.958,1.9557,1.9542,1.9538,1.9522,1.9516,1.9518,1.9478,1.9489,1.9485,1.948,1.9444,1.9439,1.9437,1.9441,1.9415,1.9415,1.9415,1.9414,1.9466,1.9468,0,0,0,0,0,0,1.959,1.9582,1.9558,1.9555,1.9554,1.9523,1.9516,1.9514,1.9478,1.9471,1.9481,1.9477,1.944,1.9437,1.9435,1.9465,1.9415,1.9414,1.9414,1.9464,1.9466,1.9468,0,0,0,0,0,0,1.9591,1.9588,1.956,1.9567,1.9562,1.9524,1.9521,1.9514,1.9509,1.9472,1.9465,1.9484,1.9439,1.9435,1.9443,1.9463,1.9414,1.9414,1.9463,1.9465,1.9467,1.9528,0,0,0,0,0,0,1.9592,1.9589,1.9601,1.9568,1.9562,1.9569,1.9523,1.9514,1.9508,1.9503,1.9473,1.9466,1.9437,1.9444,1.9443,1.9461,1.9414,1.9461,1.9464,1.9466,1.9524,1.9532,1.9539,0,0,0,0,0,1.9593,1.962,1.9601,1.9599,1.9575,1.9571,1.9567,1.9533,1.951,1.9521,1.9497,1.9467,1.9461,1.9445,1.9443,1.9462,1.9459,1.9463,1.9466,1.952,1.953,1.9539,0,0,0,0,0,0,1.9656,1.9615,1.9594,1.9611,1.9595,1.956,1.9572,1.9546,1.9535,1.953,1.9489,1.9483,1.9495,1.948,1.9463,1.9488,1.9456,1.9459,1.9497,1.9506,1.9514,1.9516,1.9413,0,0,0,0,0,1.9672,1.9672,1.9636,1.9654,1.9647,1.9611,1.9608,1.9583,1.9565,1.9558,1.9534,1.9517,1.9511,1.9508,1.9501,1.9522,1.9513,1.9534,1.9541,1.9548,1.955,1.9557,1.9565,1.948,1.948,1.948,0,0,1.9705,1.9682,1.9685,1.9666,1.9651,1.965,1.9606,1.9608,1.9607,1.9558,1.9563,1.9545,1.9524,1.9537,1.9542,1.9525,1.9572,1.9552,1.9558,1.9557,1.9562,1.957,1.9577,1.9482,1.9482,1.9481,0,0,1.9764,1.9748,1.976,1.9745,1.9722,1.9698,1.9701,1.967,1.9656,1.9661,1.9623,1.9621,1.9613,1.9598,1.9589,1.9641,1.9612,1.964,1.9679,1.9686,1.9693,1.9698,1.9715,1.9721,1.9643,1.9644,1.9644,0,1.9807,1.9806,1.977,1.9773,1.9766,1.9721,1.9732,1.972,1.9695,1.9691,1.9672,1.9658,1.9641,1.9649,1.9661,1.9657,1.9657,1.9642,1.9695,1.97,1.9705,1.972,1.9726,1.9647,1.9646,1.9646,1.9646,0,1.9859,1.9858,1.9871,1.9848,1.9842,1.9849,1.9814,1.9812,1.9788,1.9765,1.9769,1.9747,1.9733,1.9733,1.971,1.9737,1.9727,1.9702,1.9668,1.9717,1.973,1.9736,1.9652,1.965,1.9649,1.9649,0,0,1.9955,1.9912,1.9917,1.9905,1.9876,1.9874,1.9879,1.9865,1.9863,1.9848,1.985,1.9843,1.9819,1.981,1.9784,1.9791,1.9831,1.9765,1.9764,1.9776,1.9856,1.9874,1.9881,1.9812,1.9813,1.9814,1.9857,0,2.0007,2.0013,1.998,1.9994,1.9992,1.9949,1.9953,1.9936,1.9915,1.9909,1.9886,1.9881,1.9851,1.9845,1.985,1.9825,1.9846,1.9822,1.9812,1.9812,1.9816,1.9888,1.9907,1.9949,1.9862,1.9863,1.9864,0,2.0067,2.0054,2.0068,2.0036,2.0034,2.0039,2.0022,2.0018,1.9997,1.9981,1.9969,1.994,1.9941,1.9911,1.9911,1.9895,1.9889,1.9877,1.9877,1.9873,1.9839,1.9884,1.9962,1.9967,1.9872,1.9872,1.9871,0,2.0133,2.012,2.0125,2.0117,2.0081,2.0084,2.0069,2.0046,2.0039,2.0025,2.002,2.0006,1.9998,1.9988,1.9955,1.9936,1.9959,1.9926,1.9944,1.9945,1.9949,1.9949,2.0025,1.995,1.9949,1.9949,1.9949,0,2.0192,2.0202,2.0154,2.0158,2.0166,2.0129,2.0139,2.012,2.0099,2.0097,2.006,2.0059,2.0017,2.0011,1.9986,1.9988,1.9986,1.9972,1.9964,1.9974,1.9975,1.9968,1.9963,1.9951,1.9951,1.995,1.995,0,2.0267,2.0235,2.0238,2.0204,2.0195,2.0203,2.0173,2.0174,2.0151,2.0149,2.0146,2.0109,2.01,2.0067,2.005,2.0033,2.0042,2.003,2.005,2.0044,2.0064,2.0061,2.0136,2.0142,2.0065,2.0066,2.0067,0,2.0305,2.0311,2.0277,2.0273,2.026,2.0254,2.0246,2.021,2.0203,2.0178,2.0182,2.017,2.0158,2.0145,2.0116,2.0102,2.0087,2.0114,2.0085,2.0093,2.0085,2.0084,2.0083,2.012,2.0121,2.0122,2.0123,0,2.0377,2.036,2.0351,2.0336,2.0328,2.0314,2.0299,2.0297,2.0256,2.0251,2.024,2.0231,2.0213,2.02,2.0182,2.0165,2.0137,2.0133,2.0135,2.0144,2.0154,2.0146,2.0064,2.0131,2.013,2.0129,2.0129,2.0128,2.0432,2.0435,2.0411,2.0401,2.0385,2.0371,2.037,2.0346,2.0337,2.0319,2.0298,2.029,2.0266,2.0238,2.0224,2.0216,2.0201,2.0206,2.0206,2.0208,2.0211,2.0157,2.0213,2.0213,2.0212,2.0212,2.0212,0,2.0499,2.0481,2.0473,2.0452,2.0444,2.0418,2.0399,2.0394,2.0387,2.0368,2.0356,2.0344,2.0331,2.0301,2.0286,2.0285,2.0271,2.0282,2.028,2.0277,2.0227,2.0225,2.0293,2.0293,2.0293,2.0293,2.0293,2.0293,2.0533,2.0535,2.0516,2.051,2.0492,2.0483,2.0474,2.046,2.0444,2.0432,2.0421,2.0402,2.0378,2.036,2.0346,2.0338,2.0333,2.0347,2.0334,2.0288,2.028,2.0273,2.027,2.0347,2.0347,2.0384,2.0384,2.0384]}]]